sat.trackr.live / text

‹ back to catalog

STARLINK-30201

NORAD 57301 · 2023-096M

PAYLOAD ACTIVE UNKNOWN

§ Identity

Operator
Country
US
Launch date
2023-07-10
Launch site
AFETR
Launch vehicle
Mass (kg)
RCS (m²)

Purposes: comms

External: N2YO · Heavens-Above · Gunter

§ Orbital elements

Epoch: 2026-09-20T03:19:21.489024Z

Period
94.27 min
Inclination
43.0018°
Eccentricity
0.0000808
Mean motion
15.27575960 rev/d
Perigee alt
482.5 km
Apogee alt
483.6 km
Semi-major
6,861.2 km
B*
2.0483e-5
RAAN
205.2105°
Arg perigee
278.5253°
Mean anomaly
81.5507°
Rev number
17,645

§ Raw data

STARLINK-302011 57301U 23096M   26263.13844316  .00000302  00000+0  20483-4 0  99902 57301  43.0018 205.2105 0000808 278.5253  81.5507 15.27575960176453

JSON: /api/v1/satellites/57301 · /tle

For live sub-satellite position, see the globe view (requires WebGL).

§ Visibility from observer

Set your observer location to see the next 7 days of passes ≥ 10°. The values pass through the URL so the page stays shareable.

No JS? Fill the form by hand. The geolocation button needs JavaScript.